Year,Month,Day,Hour,Minute,Value (Times are PST for windspeed in km/hr)
2016,07,29,00,00,7.70
2016,07,29,00,01,7.80
2016,07,29,00,02,7.00
2016,07,29,00,03,10.70
2016,07,29,00,04,8.10
2016,07,29,00,05,8.90
2016,07,29,00,06,10.90
2016,07,29,00,07,8.50
2016,07,29,00,08,9.70
2016,07,29,00,09,12.20
2016,07,29,00,10,9.80
2016,07,29,00,11,10.70
2016,07,29,00,12,14.00
2016,07,29,00,13,11.50
2016,07,29,00,14,8.30
2016,07,29,00,15,10.30
2016,07,29,00,16,8.50
2016,07,29,00,17,11.60
2016,07,29,00,18,12.70
2016,07,29,00,19,14.00
2016,07,29,00,20,10.60
2016,07,29,00,21,15.10
2016,07,29,00,22,10.30
2016,07,29,00,23,11.90
2016,07,29,00,24,12.20
2016,07,29,00,25,9.70
2016,07,29,00,26,13.20
2016,07,29,00,27,9.40
2016,07,29,00,28,9.80
2016,07,29,00,29,9.90
2016,07,29,00,30,10.30
2016,07,29,00,31,8.60
2016,07,29,00,32,7.70
2016,07,29,00,33,6.00
2016,07,29,00,34,7.90
2016,07,29,00,35,6.70
2016,07,29,00,36,10.40
2016,07,29,00,37,5.20
2016,07,29,00,38,10.30
2016,07,29,00,39,7.90
2016,07,29,00,40,7.50
2016,07,29,00,41,9.10
2016,07,29,00,42,9.80
2016,07,29,00,43,9.30
2016,07,29,00,44,12.60
2016,07,29,00,45,12.50
2016,07,29,00,46,8.50
2016,07,29,00,47,7.20
2016,07,29,00,48,7.20
2016,07,29,00,49,10.90
2016,07,29,00,50,10.10
2016,07,29,00,51,10.20
2016,07,29,00,52,8.70
2016,07,29,00,53,11.30
2016,07,29,00,54,7.90
2016,07,29,00,55,7.80
2016,07,29,00,56,8.50
2016,07,29,00,57,9.10
2016,07,29,00,58,5.30
2016,07,29,00,59,9.80
2016,07,29,01,00,10.30
2016,07,29,01,01,10.10
2016,07,29,01,02,5.10
2016,07,29,01,03,11.10
2016,07,29,01,04,11.90
2016,07,29,01,05,10.50
2016,07,29,01,06,6.10
2016,07,29,01,07,5.90
2016,07,29,01,08,4.50
2016,07,29,01,09,6.30
2016,07,29,01,10,7.30
2016,07,29,01,11,8.30
2016,07,29,01,12,8.60
2016,07,29,01,13,9.10
2016,07,29,01,14,6.90
2016,07,29,01,15,8.90
2016,07,29,01,16,4.20
2016,07,29,01,17,7.40
2016,07,29,01,18,10.90
2016,07,29,01,19,12.80
2016,07,29,01,20,12.60
2016,07,29,01,21,14.50
2016,07,29,01,22,9.40
2016,07,29,01,23,8.00
2016,07,29,01,24,7.60
2016,07,29,01,25,8.30
2016,07,29,01,26,8.60
2016,07,29,01,27,7.40
2016,07,29,01,28,6.70
2016,07,29,01,29,9.10
2016,07,29,01,30,8.20
2016,07,29,01,31,8.30
2016,07,29,01,32,8.80
2016,07,29,01,33,6.90
2016,07,29,01,34,7.90
2016,07,29,01,35,12.80
2016,07,29,01,36,15.20
2016,07,29,01,37,8.20
2016,07,29,01,38,13.10
2016,07,29,01,39,9.40
2016,07,29,01,40,9.30
2016,07,29,01,41,12.80
2016,07,29,01,42,11.00
2016,07,29,01,43,13.20
2016,07,29,01,44,12.10
2016,07,29,01,45,13.80
2016,07,29,01,46,14.60
2016,07,29,01,47,12.00
2016,07,29,01,48,14.40
2016,07,29,01,49,11.70
2016,07,29,01,50,18.20
2016,07,29,01,51,16.40
2016,07,29,01,52,16.60
2016,07,29,01,53,16.80
2016,07,29,01,54,16.00
2016,07,29,01,55,19.70
2016,07,29,01,56,14.20
2016,07,29,01,57,8.30
2016,07,29,01,58,17.00
2016,07,29,01,59,10.90
2016,07,29,02,00,9.30
2016,07,29,02,01,14.50
2016,07,29,02,02,14.60
2016,07,29,02,03,17.20
2016,07,29,02,04,11.10
2016,07,29,02,05,15.30
2016,07,29,02,06,11.30
2016,07,29,02,07,13.20
2016,07,29,02,08,10.50
2016,07,29,02,09,8.00
2016,07,29,02,10,7.30
2016,07,29,02,11,8.30
2016,07,29,02,12,15.00
2016,07,29,02,13,12.80
2016,07,29,02,14,11.30
2016,07,29,02,15,14.50
2016,07,29,02,16,10.80
2016,07,29,02,17,8.80
2016,07,29,02,18,10.40
2016,07,29,02,19,5.50
2016,07,29,02,20,7.60
2016,07,29,02,21,8.90
2016,07,29,02,22,11.10
2016,07,29,02,23,10.40
2016,07,29,02,24,8.80
2016,07,29,02,25,10.00
2016,07,29,02,26,8.80
2016,07,29,02,27,12.80
2016,07,29,02,28,9.50
2016,07,29,02,29,10.40
2016,07,29,02,30,10.30
2016,07,29,02,31,12.80
2016,07,29,02,32,10.70
2016,07,29,02,33,10.20
2016,07,29,02,34,13.20
2016,07,29,02,35,14.30
2016,07,29,02,36,10.70
2016,07,29,02,37,13.10
2016,07,29,02,38,12.60
2016,07,29,02,39,12.30
2016,07,29,02,40,11.40
2016,07,29,02,41,11.30
2016,07,29,02,42,10.00
2016,07,29,02,43,13.80
2016,07,29,02,44,11.50
2016,07,29,02,45,6.00
2016,07,29,02,46,8.90
2016,07,29,02,47,14.20
2016,07,29,02,48,9.90
2016,07,29,02,49,10.60
2016,07,29,02,50,6.70
2016,07,29,02,51,9.50
2016,07,29,02,52,9.10
2016,07,29,02,53,12.50
2016,07,29,02,54,9.20
2016,07,29,02,55,10.60
2016,07,29,02,56,16.10
2016,07,29,02,57,8.30
2016,07,29,02,58,14.50
2016,07,29,02,59,13.00
2016,07,29,03,00,7.20
2016,07,29,03,01,13.60
2016,07,29,03,02,12.90
2016,07,29,03,03,9.10
2016,07,29,03,04,15.90
2016,07,29,03,05,14.20
2016,07,29,03,06,15.10
2016,07,29,03,07,11.50
2016,07,29,03,08,11.90
2016,07,29,03,09,12.40
2016,07,29,03,10,13.10
2016,07,29,03,11,9.20
2016,07,29,03,12,16.70
2016,07,29,03,13,12.60
2016,07,29,03,14,14.10
2016,07,29,03,15,12.30
2016,07,29,03,16,9.70
2016,07,29,03,17,11.00
2016,07,29,03,18,8.40
2016,07,29,03,19,9.80
2016,07,29,03,20,9.50
2016,07,29,03,21,8.20
2016,07,29,03,22,8.30
2016,07,29,03,23,10.90
2016,07,29,03,24,10.80
2016,07,29,03,25,12.90
2016,07,29,03,26,11.10
2016,07,29,03,27,10.30
2016,07,29,03,28,11.70
2016,07,29,03,29,10.00
2016,07,29,03,30,12.30
2016,07,29,03,31,10.60
2016,07,29,03,32,13.10
2016,07,29,03,33,15.70
2016,07,29,03,34,11.60
2016,07,29,03,35,9.60
2016,07,29,03,36,16.60
2016,07,29,03,37,14.40
2016,07,29,03,38,11.70
2016,07,29,03,39,10.90
2016,07,29,03,40,8.00
2016,07,29,03,41,7.70
2016,07,29,03,42,10.20
2016,07,29,03,43,10.10
2016,07,29,03,44,9.50
2016,07,29,03,45,8.10
2016,07,29,03,46,7.00
2016,07,29,03,47,13.60
2016,07,29,03,48,8.30
2016,07,29,03,49,9.80
2016,07,29,03,50,10.40
2016,07,29,03,51,14.60
2016,07,29,03,52,9.70
2016,07,29,03,53,5.90
2016,07,29,03,54,6.30
2016,07,29,03,55,9.10
2016,07,29,03,56,9.30
2016,07,29,03,57,7.30
2016,07,29,03,58,6.40
2016,07,29,03,59,8.30
2016,07,29,04,00,6.60
2016,07,29,04,01,6.90
2016,07,29,04,02,7.00
2016,07,29,04,03,8.90
2016,07,29,04,04,9.10
2016,07,29,04,05,7.30
2016,07,29,04,06,8.50
2016,07,29,04,07,9.00
2016,07,29,04,08,10.70
2016,07,29,04,09,11.80
2016,07,29,04,10,7.40
2016,07,29,04,11,7.70
2016,07,29,04,12,9.40
2016,07,29,04,13,10.40
2016,07,29,04,14,9.50
2016,07,29,04,15,9.70
2016,07,29,04,16,8.50
2016,07,29,04,17,10.30
2016,07,29,04,18,11.10
2016,07,29,04,19,12.70
2016,07,29,04,20,7.90
2016,07,29,04,21,9.10
2016,07,29,04,22,8.80
2016,07,29,04,23,10.80
2016,07,29,04,24,10.10
2016,07,29,04,25,9.90
2016,07,29,04,26,9.40
2016,07,29,04,27,12.20
2016,07,29,04,28,9.10
2016,07,29,04,29,12.90
2016,07,29,04,30,10.90
2016,07,29,04,31,6.40
2016,07,29,04,32,6.90
2016,07,29,04,33,6.60
2016,07,29,04,34,8.50
2016,07,29,04,35,7.30
2016,07,29,04,36,6.00
2016,07,29,04,37,5.90
2016,07,29,04,38,9.20
2016,07,29,04,39,11.10
2016,07,29,04,40,7.90
2016,07,29,04,41,7.90
2016,07,29,04,42,8.20
2016,07,29,04,43,8.20
2016,07,29,04,44,9.50
2016,07,29,04,45,8.60
2016,07,29,04,46,4.30
2016,07,29,04,47,8.90
2016,07,29,04,48,8.30
2016,07,29,04,49,6.80
2016,07,29,04,50,9.10
2016,07,29,04,51,6.40
2016,07,29,04,52,6.30
2016,07,29,04,53,6.60
2016,07,29,04,54,6.70
2016,07,29,04,55,6.00
2016,07,29,04,56,4.80
2016,07,29,04,57,8.20
2016,07,29,04,58,7.80
2016,07,29,04,59,8.40
2016,07,29,05,00,7.50
2016,07,29,05,01,6.90
2016,07,29,05,02,9.90
2016,07,29,05,03,8.60
2016,07,29,05,04,5.50
2016,07,29,05,05,8.00
2016,07,29,05,06,5.60
2016,07,29,05,07,6.50
2016,07,29,05,08,8.10
2016,07,29,05,09,8.10
2016,07,29,05,10,5.80
2016,07,29,05,11,7.90
2016,07,29,05,12,5.90
2016,07,29,05,13,6.10
2016,07,29,05,14,4.70
2016,07,29,05,15,6.90
2016,07,29,05,16,7.60
2016,07,29,05,17,7.90
2016,07,29,05,18,5.60
2016,07,29,05,19,7.70
2016,07,29,05,20,8.60
2016,07,29,05,21,9.80
2016,07,29,05,22,8.90
2016,07,29,05,23,5.70
2016,07,29,05,24,7.20
2016,07,29,05,25,11.80
2016,07,29,05,26,13.40
2016,07,29,05,27,6.70
2016,07,29,05,28,6.50
2016,07,29,05,29,5.30
2016,07,29,05,30,6.70
2016,07,29,05,31,13.50
2016,07,29,05,32,11.00
2016,07,29,05,33,12.70
2016,07,29,05,34,12.20
2016,07,29,05,35,16.00
2016,07,29,05,36,10.30
2016,07,29,05,37,14.40
2016,07,29,05,38,11.00
2016,07,29,05,39,10.90
2016,07,29,05,40,13.30
2016,07,29,05,41,13.60
2016,07,29,05,42,12.00
2016,07,29,05,43,11.20
2016,07,29,05,44,15.80
2016,07,29,05,45,10.40
2016,07,29,05,46,12.50
2016,07,29,05,47,13.50
2016,07,29,05,48,12.60
2016,07,29,05,49,11.30
2016,07,29,05,50,10.70
2016,07,29,05,51,12.00
2016,07,29,05,52,13.40
2016,07,29,05,53,10.40
2016,07,29,05,54,10.70
2016,07,29,05,55,13.20
2016,07,29,05,56,11.00
2016,07,29,05,57,9.70
2016,07,29,05,58,8.40
2016,07,29,05,59,12.10
2016,07,29,06,00,9.10
2016,07,29,06,01,11.40
2016,07,29,06,02,13.20
2016,07,29,06,03,10.00
2016,07,29,06,04,12.60
2016,07,29,06,05,12.20
2016,07,29,06,06,8.00
2016,07,29,06,07,11.10
2016,07,29,06,08,9.40
2016,07,29,06,09,9.10
2016,07,29,06,10,10.20
2016,07,29,06,11,11.30
2016,07,29,06,12,12.80
2016,07,29,06,13,6.40
2016,07,29,06,14,14.20
2016,07,29,06,15,13.00
2016,07,29,06,16,11.40
2016,07,29,06,17,11.20
2016,07,29,06,18,13.10
2016,07,29,06,19,10.70
2016,07,29,06,20,16.50
2016,07,29,06,21,14.80
2016,07,29,06,22,12.20
2016,07,29,06,23,13.20
2016,07,29,06,24,8.00
2016,07,29,06,25,10.90
2016,07,29,06,26,10.60
2016,07,29,06,27,10.80
2016,07,29,06,28,13.40
2016,07,29,06,29,15.70
2016,07,29,06,30,8.80
2016,07,29,06,31,10.90
2016,07,29,06,32,10.60
2016,07,29,06,33,15.00
2016,07,29,06,34,14.90
2016,07,29,06,35,13.70
2016,07,29,06,36,13.30
2016,07,29,06,37,16.50
2016,07,29,06,38,18.10
2016,07,29,06,39,13.00
2016,07,29,06,40,15.00
2016,07,29,06,41,8.20
2016,07,29,06,42,11.90
2016,07,29,06,43,7.60
2016,07,29,06,44,10.30
2016,07,29,06,45,14.90
2016,07,29,06,46,14.50
2016,07,29,06,47,15.30
2016,07,29,06,48,11.30
2016,07,29,06,49,9.80
2016,07,29,06,50,9.70
2016,07,29,06,51,11.60
2016,07,29,06,52,6.60
2016,07,29,06,53,9.20
2016,07,29,06,54,11.90
2016,07,29,06,55,9.40
2016,07,29,06,56,9.70
2016,07,29,06,57,6.60
2016,07,29,06,58,15.00
2016,07,29,06,59,11.90
2016,07,29,07,00,12.20
2016,07,29,07,01,10.40
2016,07,29,07,02,6.90
2016,07,29,07,03,7.30
2016,07,29,07,04,9.70
2016,07,29,07,05,6.20
2016,07,29,07,06,11.80
2016,07,29,07,07,11.60
2016,07,29,07,08,10.40
2016,07,29,07,09,9.70
2016,07,29,07,10,12.30
2016,07,29,07,11,9.10
2016,07,29,07,12,12.90
2016,07,29,07,13,13.40
2016,07,29,07,14,9.80
2016,07,29,07,15,13.90
2016,07,29,07,16,14.70
2016,07,29,07,17,12.20
2016,07,29,07,18,12.50
2016,07,29,07,19,10.60
2016,07,29,07,20,12.90
2016,07,29,07,21,13.60
2016,07,29,07,22,14.20
2016,07,29,07,23,9.80
2016,07,29,07,24,8.10
2016,07,29,07,25,10.30
2016,07,29,07,26,15.60
2016,07,29,07,27,13.60
2016,07,29,07,28,16.50
2016,07,29,07,29,16.30
2016,07,29,07,30,14.10
2016,07,29,07,31,13.70
2016,07,29,07,32,11.80
2016,07,29,07,33,10.20
2016,07,29,07,34,12.60
2016,07,29,07,35,15.10
2016,07,29,07,36,11.90
2016,07,29,07,37,10.80
2016,07,29,07,38,6.70
2016,07,29,07,39,13.50
2016,07,29,07,40,16.00
2016,07,29,07,41,9.30
2016,07,29,07,42,7.00
2016,07,29,07,43,12.50
2016,07,29,07,44,11.90
2016,07,29,07,45,8.50
2016,07,29,07,46,11.10
2016,07,29,07,47,15.10
2016,07,29,07,48,9.80
2016,07,29,07,49,10.60
2016,07,29,07,50,8.30
2016,07,29,07,51,12.00
2016,07,29,07,52,14.20
2016,07,29,07,53,11.50
2016,07,29,07,54,10.90
2016,07,29,07,55,12.60
2016,07,29,07,56,11.00
2016,07,29,07,57,11.80
2016,07,29,07,58,7.80
2016,07,29,07,59,13.80
2016,07,29,08,00,12.20
2016,07,29,08,01,12.50
2016,07,29,08,02,9.20
2016,07,29,08,03,12.00
2016,07,29,08,04,8.90
2016,07,29,08,05,7.00
2016,07,29,08,06,12.40
2016,07,29,08,07,7.50
2016,07,29,08,08,4.80
2016,07,29,08,09,10.80
2016,07,29,08,10,10.20
2016,07,29,08,11,11.80
2016,07,29,08,12,18.70
2016,07,29,08,13,13.10
2016,07,29,08,14,12.60
2016,07,29,08,15,11.80
2016,07,29,08,16,9.40
2016,07,29,08,17,8.60
2016,07,29,08,18,13.20
2016,07,29,08,19,17.80
2016,07,29,08,20,12.00
2016,07,29,08,21,14.40
2016,07,29,08,22,17.20
2016,07,29,08,23,21.30
2016,07,29,08,24,14.40
2016,07,29,08,25,8.60
2016,07,29,08,26,10.00
2016,07,29,08,27,11.90
2016,07,29,08,28,7.80
2016,07,29,08,29,11.60
2016,07,29,08,30,12.00
2016,07,29,08,31,11.20
2016,07,29,08,32,8.10
2016,07,29,08,33,11.80
2016,07,29,08,34,10.50
2016,07,29,08,35,12.90
2016,07,29,08,36,13.80
2016,07,29,08,37,12.20
2016,07,29,08,38,11.90
2016,07,29,08,39,13.70
2016,07,29,08,40,14.40
2016,07,29,08,41,16.20
2016,07,29,08,42,16.30
2016,07,29,08,43,13.30
2016,07,29,08,44,8.40
2016,07,29,08,45,10.60
2016,07,29,08,46,14.60
2016,07,29,08,47,12.80
2016,07,29,08,48,16.60
2016,07,29,08,49,12.10
2016,07,29,08,50,13.50
2016,07,29,08,51,10.80
2016,07,29,08,52,14.40
2016,07,29,08,53,7.00
2016,07,29,08,54,6.90
2016,07,29,08,55,12.60
2016,07,29,08,56,10.60
2016,07,29,08,57,12.00
2016,07,29,08,58,15.40
2016,07,29,08,59,15.40
2016,07,29,09,00,14.10
2016,07,29,09,01,15.00
2016,07,29,09,02,12.20
2016,07,29,09,03,15.30
2016,07,29,09,04,13.80
2016,07,29,09,05,13.10
2016,07,29,09,06,10.70
2016,07,29,09,07,13.60
2016,07,29,09,08,16.70
2016,07,29,09,09,15.20
2016,07,29,09,10,15.40
2016,07,29,09,11,14.10
2016,07,29,09,12,10.80
2016,07,29,09,13,15.20
2016,07,29,09,14,12.00
2016,07,29,09,15,12.20
2016,07,29,09,16,11.90
2016,07,29,09,17,16.00
2016,07,29,09,18,15.10
2016,07,29,09,19,8.00
2016,07,29,09,20,11.80
2016,07,29,09,21,10.80
2016,07,29,09,22,13.60
2016,07,29,09,23,17.60
2016,07,29,09,24,15.40
2016,07,29,09,25,17.00
2016,07,29,09,26,16.00
2016,07,29,09,27,15.70
2016,07,29,09,28,14.80
2016,07,29,09,29,18.50
2016,07,29,09,30,13.50
2016,07,29,09,31,18.20
2016,07,29,09,32,22.70
2016,07,29,09,33,13.20
2016,07,29,09,34,14.00
2016,07,29,09,35,21.30
2016,07,29,09,36,20.40
2016,07,29,09,37,18.20
2016,07,29,09,38,19.40
2016,07,29,09,39,16.60
2016,07,29,09,40,19.30
2016,07,29,09,41,20.10
2016,07,29,09,42,16.50
2016,07,29,09,43,15.00
2016,07,29,09,44,12.90
2016,07,29,09,45,16.80
2016,07,29,09,46,20.90
2016,07,29,09,47,15.70
2016,07,29,09,48,19.60
2016,07,29,09,49,18.20
2016,07,29,09,50,15.30
2016,07,29,09,51,12.90
2016,07,29,09,52,14.20
2016,07,29,09,53,18.80
2016,07,29,09,54,15.50
2016,07,29,09,55,14.90
2016,07,29,09,56,18.20
2016,07,29,09,57,15.30
2016,07,29,09,58,18.20
2016,07,29,09,59,18.70
2016,07,29,10,00,19.90
2016,07,29,10,01,13.70
2016,07,29,10,02,15.00
2016,07,29,10,03,16.20
2016,07,29,10,04,15.70
2016,07,29,10,05,15.50
2016,07,29,10,06,17.30
2016,07,29,10,07,15.50
2016,07,29,10,08,16.80
2016,07,29,10,09,10.30
2016,07,29,10,10,13.50
2016,07,29,10,11,14.30
2016,07,29,10,12,18.60
2016,07,29,10,13,13.30
2016,07,29,10,14,20.40
2016,07,29,10,15,11.70
2016,07,29,10,16,12.00
2016,07,29,10,17,12.80
2016,07,29,10,18,20.60
2016,07,29,10,19,17.90
2016,07,29,10,20,13.40
2016,07,29,10,21,19.40
2016,07,29,10,22,18.10
2016,07,29,10,23,18.10
2016,07,29,10,24,12.20
2016,07,29,10,25,10.00
2016,07,29,10,26,10.90
2016,07,29,10,27,16.00
2016,07,29,10,28,17.30
2016,07,29,10,29,17.30
2016,07,29,10,30,13.20
2016,07,29,10,31,14.50
2016,07,29,10,32,16.30
2016,07,29,10,33,11.80
2016,07,29,10,34,9.40
2016,07,29,10,35,15.80
2016,07,29,10,36,19.40
2016,07,29,10,37,15.60
2016,07,29,10,38,14.50
2016,07,29,10,39,13.00
2016,07,29,10,40,13.30
2016,07,29,10,41,13.70
2016,07,29,10,42,18.70
2016,07,29,10,43,16.40
2016,07,29,10,44,11.20
2016,07,29,10,45,17.90
2016,07,29,10,46,18.10
2016,07,29,10,47,20.50
2016,07,29,10,48,19.40
2016,07,29,10,49,21.80
2016,07,29,10,50,19.40
2016,07,29,10,51,17.10
2016,07,29,10,52,14.10
2016,07,29,10,53,17.70
2016,07,29,10,54,17.90
2016,07,29,10,55,19.80
2016,07,29,10,56,21.30
2016,07,29,10,57,20.00
2016,07,29,10,58,21.70
2016,07,29,10,59,18.20
2016,07,29,11,00,20.40
2016,07,29,11,01,16.40
2016,07,29,11,02,11.20
2016,07,29,11,03,9.30
2016,07,29,11,04,17.50
2016,07,29,11,05,18.20
2016,07,29,11,06,10.70
2016,07,29,11,07,19.00
2016,07,29,11,08,14.00
2016,07,29,11,09,20.00
2016,07,29,11,10,17.40
2016,07,29,11,11,18.20
2016,07,29,11,12,14.80
2016,07,29,11,13,16.90
2016,07,29,11,14,16.50
2016,07,29,11,15,20.70
2016,07,29,11,16,20.40
2016,07,29,11,17,16.60
2016,07,29,11,18,12.10
2016,07,29,11,19,18.40
2016,07,29,11,20,15.90
2016,07,29,11,21,14.90
2016,07,29,11,22,14.80
2016,07,29,11,23,13.90
2016,07,29,11,24,11.10
2016,07,29,11,25,10.20
2016,07,29,11,26,9.00
2016,07,29,11,27,20.40
2016,07,29,11,28,18.70
2016,07,29,11,29,18.10
2016,07,29,11,30,19.20
2016,07,29,11,31,17.80
2016,07,29,11,32,14.50
2016,07,29,11,33,22.50
2016,07,29,11,34,14.10
2016,07,29,11,35,20.30
2016,07,29,11,36,22.40
2016,07,29,11,37,20.40
2016,07,29,11,38,21.50
2016,07,29,11,39,21.20
2016,07,29,11,40,21.10
2016,07,29,11,41,22.80
2016,07,29,11,42,20.50
2016,07,29,11,43,17.20
2016,07,29,11,44,17.90
2016,07,29,11,45,18.90
2016,07,29,11,46,20.20
2016,07,29,11,47,15.10
2016,07,29,11,48,15.60
2016,07,29,11,49,12.20
2016,07,29,11,50,18.40
2016,07,29,11,51,19.40
2016,07,29,11,52,22.90
2016,07,29,11,53,21.30
2016,07,29,11,54,18.70
2016,07,29,11,55,19.00
2016,07,29,11,56,17.20
2016,07,29,11,57,10.60
2016,07,29,11,58,14.80
2016,07,29,11,59,13.80
2016,07,29,12,00,13.00
2016,07,29,12,01,19.00
2016,07,29,12,02,19.70
2016,07,29,12,03,14.80
2016,07,29,12,04,22.90
2016,07,29,12,05,20.80
2016,07,29,12,06,19.60
2016,07,29,12,07,16.70
2016,07,29,12,08,18.10
2016,07,29,12,09,18.00
2016,07,29,12,10,14.10
2016,07,29,12,11,16.10
2016,07,29,12,12,21.90
2016,07,29,12,13,22.90
2016,07,29,12,14,18.80
2016,07,29,12,15,10.60
2016,07,29,12,16,16.30
2016,07,29,12,17,17.80
2016,07,29,12,18,18.30
2016,07,29,12,19,17.90
2016,07,29,12,20,19.90
2016,07,29,12,21,22.50
2016,07,29,12,22,19.80
2016,07,29,12,23,18.30
2016,07,29,12,24,15.50
2016,07,29,12,25,15.40
2016,07,29,12,26,20.90
2016,07,29,12,27,20.90
2016,07,29,12,28,21.50
2016,07,29,12,29,20.30
2016,07,29,12,30,15.10
2016,07,29,12,31,23.40
2016,07,29,12,32,24.90
2016,07,29,12,33,21.80
2016,07,29,12,34,27.60
2016,07,29,12,35,20.30
2016,07,29,12,36,24.00
2016,07,29,12,37,23.40
2016,07,29,12,38,20.90
2016,07,29,12,39,19.30
2016,07,29,12,40,18.40
2016,07,29,12,41,20.10
2016,07,29,12,42,23.40
2016,07,29,12,43,21.20
2016,07,29,12,44,20.40
2016,07,29,12,45,22.80
2016,07,29,12,46,26.30
2016,07,29,12,47,22.10
2016,07,29,12,48,28.70
2016,07,29,12,49,23.10
2016,07,29,12,50,18.20
2016,07,29,12,51,18.90
2016,07,29,12,52,21.90
2016,07,29,12,53,21.70
2016,07,29,12,54,14.90
2016,07,29,12,55,14.20
2016,07,29,12,56,17.90
2016,07,29,12,57,17.50
2016,07,29,12,58,17.00
2016,07,29,12,59,12.50
2016,07,29,13,00,21.10
2016,07,29,13,01,23.90
2016,07,29,13,02,21.00
2016,07,29,13,03,27.20
2016,07,29,13,04,23.80
2016,07,29,13,05,22.20
2016,07,29,13,06,18.60
2016,07,29,13,07,23.20
2016,07,29,13,08,16.90
2016,07,29,13,09,23.40
2016,07,29,13,10,25.00
2016,07,29,13,11,21.10
2016,07,29,13,12,21.00
2016,07,29,13,13,25.90
2016,07,29,13,14,21.40
2016,07,29,13,15,27.60
2016,07,29,13,16,22.80
2016,07,29,13,17,23.50
2016,07,29,13,18,23.50
2016,07,29,13,19,19.00
2016,07,29,13,20,19.40
2016,07,29,13,21,26.20
2016,07,29,13,22,21.90
2016,07,29,13,23,17.00
2016,07,29,13,24,17.20
2016,07,29,13,25,18.60
2016,07,29,13,26,20.70
2016,07,29,13,27,20.00
2016,07,29,13,28,19.40
2016,07,29,13,29,21.50
2016,07,29,13,30,25.20
2016,07,29,13,31,19.10
2016,07,29,13,32,15.30
2016,07,29,13,33,11.70
2016,07,29,13,34,22.20
2016,07,29,13,35,20.10
2016,07,29,13,36,21.30
2016,07,29,13,37,18.40
2016,07,29,13,38,14.30
2016,07,29,13,39,16.30
2016,07,29,13,40,21.90
2016,07,29,13,41,23.90
2016,07,29,13,42,24.10
2016,07,29,13,43,24.10
2016,07,29,13,44,20.30
2016,07,29,13,45,14.00
2016,07,29,13,46,21.60
2016,07,29,13,47,21.40
2016,07,29,13,48,16.80
2016,07,29,13,49,19.50
2016,07,29,13,50,22.80
2016,07,29,13,51,18.50
2016,07,29,13,52,17.70
2016,07,29,13,53,13.40
2016,07,29,13,54,14.00
2016,07,29,13,55,17.30
2016,07,29,13,56,23.20
2016,07,29,13,57,18.10
2016,07,29,13,58,12.70
2016,07,29,13,59,18.50
2016,07,29,14,00,16.70
2016,07,29,14,01,14.80
2016,07,29,14,02,17.90
2016,07,29,14,03,21.50
2016,07,29,14,04,18.30
2016,07,29,14,05,17.00
2016,07,29,14,06,21.10
2016,07,29,14,07,21.50
2016,07,29,14,08,15.60
2016,07,29,14,09,21.60
2016,07,29,14,10,14.40
2016,07,29,14,11,16.40
2016,07,29,14,12,18.90
2016,07,29,14,13,15.00
2016,07,29,14,14,21.00
2016,07,29,14,15,22.20
2016,07,29,14,16,15.40
2016,07,29,14,17,10.90
2016,07,29,14,18,22.50
2016,07,29,14,19,16.30
2016,07,29,14,20,20.10
2016,07,29,14,21,22.30
2016,07,29,14,22,17.70
2016,07,29,14,23,17.70
2016,07,29,14,24,17.20
2016,07,29,14,25,18.60
2016,07,29,14,26,19.80
2016,07,29,14,27,23.00
2016,07,29,14,28,16.20
2016,07,29,14,29,19.30
2016,07,29,14,30,19.90
2016,07,29,14,31,23.90
2016,07,29,14,32,24.30
2016,07,29,14,33,26.00
2016,07,29,14,34,19.40
2016,07,29,14,35,8.50
2016,07,29,14,36,19.60
2016,07,29,14,37,26.00
2016,07,29,14,38,19.50
2016,07,29,14,39,20.30
2016,07,29,14,40,15.60
2016,07,29,14,41,17.50
2016,07,29,14,42,20.30
2016,07,29,14,43,22.10
2016,07,29,14,44,17.30
2016,07,29,14,45,21.80
2016,07,29,14,46,21.80
2016,07,29,14,47,12.80
2016,07,29,14,48,22.10
2016,07,29,14,49,18.30
2016,07,29,14,50,21.80
2016,07,29,14,51,23.30
2016,07,29,14,52,18.70
2016,07,29,14,53,15.10
2016,07,29,14,54,13.20
2016,07,29,14,55,23.70
2016,07,29,14,56,20.00
2016,07,29,14,57,21.90
2016,07,29,14,58,19.40
2016,07,29,14,59,21.70
2016,07,29,15,00,25.50
2016,07,29,15,01,21.70
2016,07,29,15,02,22.00
2016,07,29,15,03,28.00
2016,07,29,15,04,20.10
2016,07,29,15,05,21.60
2016,07,29,15,06,15.10
2016,07,29,15,07,18.30
2016,07,29,15,08,22.40
2016,07,29,15,09,21.70
2016,07,29,15,10,20.00
2016,07,29,15,11,30.60
2016,07,29,15,12,20.20
2016,07,29,15,13,15.30
2016,07,29,15,14,17.90
2016,07,29,15,15,24.00
2016,07,29,15,16,19.60
2016,07,29,15,17,21.30
2016,07,29,15,18,16.20
2016,07,29,15,19,20.10
2016,07,29,15,20,17.30
2016,07,29,15,21,18.80
2016,07,29,15,22,22.80
2016,07,29,15,23,29.10
2016,07,29,15,24,21.90
2016,07,29,15,25,19.60
2016,07,29,15,26,19.40
2016,07,29,15,27,12.70
2016,07,29,15,28,23.10
2016,07,29,15,29,28.00
2016,07,29,15,30,22.30
2016,07,29,15,31,25.10
2016,07,29,15,32,20.30
2016,07,29,15,33,14.00
2016,07,29,15,34,18.50
2016,07,29,15,35,28.10
2016,07,29,15,36,18.50
2016,07,29,15,37,25.70
2016,07,29,15,38,22.30
2016,07,29,15,39,28.60
2016,07,29,15,40,22.10
2016,07,29,15,41,16.80
2016,07,29,15,42,19.20
2016,07,29,15,43,22.30
2016,07,29,15,44,19.50
2016,07,29,15,45,25.50
2016,07,29,15,46,27.70
2016,07,29,15,47,22.40
2016,07,29,15,48,22.60
2016,07,29,15,49,21.80
2016,07,29,15,50,17.00
2016,07,29,15,51,22.60
2016,07,29,15,52,20.90
2016,07,29,15,53,22.40
2016,07,29,15,54,27.10
2016,07,29,15,55,24.60
2016,07,29,15,56,20.10
2016,07,29,15,57,20.10
2016,07,29,15,58,19.90
2016,07,29,15,59,20.00
2016,07,29,16,00,20.30
2016,07,29,16,01,19.60
2016,07,29,16,02,20.90
2016,07,29,16,03,21.50
2016,07,29,16,04,18.20
2016,07,29,16,05,15.60
2016,07,29,16,06,20.10
2016,07,29,16,07,24.40
2016,07,29,16,08,23.00
2016,07,29,16,09,23.70
2016,07,29,16,10,25.80
2016,07,29,16,11,19.20
2016,07,29,16,12,16.30
2016,07,29,16,13,14.10
2016,07,29,16,14,13.10
2016,07,29,16,15,21.80
2016,07,29,16,16,24.10
2016,07,29,16,17,25.30
2016,07,29,16,18,25.00
2016,07,29,16,19,22.50
2016,07,29,16,20,22.90
2016,07,29,16,21,24.00
2016,07,29,16,22,17.10
2016,07,29,16,23,14.80
2016,07,29,16,24,8.80
2016,07,29,16,25,11.40
2016,07,29,16,26,21.40
2016,07,29,16,27,16.20
2016,07,29,16,28,17.60
2016,07,29,16,29,21.20
2016,07,29,16,30,19.40
2016,07,29,16,31,22.30
2016,07,29,16,32,26.10
2016,07,29,16,33,21.20
2016,07,29,16,34,16.70
2016,07,29,16,35,25.60
2016,07,29,16,36,25.90
2016,07,29,16,37,17.60
2016,07,29,16,38,24.20
2016,07,29,16,39,24.70
2016,07,29,16,40,21.20
2016,07,29,16,41,16.70
2016,07,29,16,42,12.90
2016,07,29,16,43,19.00
2016,07,29,16,44,19.30
2016,07,29,16,45,18.90
2016,07,29,16,46,24.80
2016,07,29,16,47,22.50
2016,07,29,16,48,23.70
2016,07,29,16,49,21.90
2016,07,29,16,50,26.70
2016,07,29,16,51,24.90
2016,07,29,16,52,23.20
2016,07,29,16,53,25.80
2016,07,29,16,54,15.90
2016,07,29,16,55,24.00
2016,07,29,16,56,24.90
2016,07,29,16,57,20.30
2016,07,29,16,58,15.80
2016,07,29,16,59,20.70
2016,07,29,17,00,20.10
2016,07,29,17,01,17.50
2016,07,29,17,02,24.90
2016,07,29,17,03,20.40
2016,07,29,17,04,17.50
2016,07,29,17,05,16.40
2016,07,29,17,06,21.50
2016,07,29,17,07,14.40
2016,07,29,17,08,31.10
2016,07,29,17,09,20.30
2016,07,29,17,10,18.00
2016,07,29,17,11,16.40
2016,07,29,17,12,20.20
2016,07,29,17,13,19.30
2016,07,29,17,14,18.20
2016,07,29,17,15,20.90
2016,07,29,17,16,22.90
2016,07,29,17,17,26.80
2016,07,29,17,18,28.10
2016,07,29,17,19,25.20
2016,07,29,17,20,20.40
2016,07,29,17,21,29.00
2016,07,29,17,22,19.10
2016,07,29,17,23,19.00
2016,07,29,17,24,22.70
2016,07,29,17,25,23.50
2016,07,29,17,26,18.40
2016,07,29,17,27,19.90
2016,07,29,17,28,25.20
2016,07,29,17,29,21.80